Date,TemperatureHighF,TemperatureAvgF,TemperatureLowF,DewpointHighF,DewpointAvgF,DewpointLowF,HumidityHigh,HumidityAvg,HumidityLow,PressureMaxIn,PressureMinIn,WindSpeedMaxMPH,WindSpeedAvgMPH,GustSpeedMaxMPH,PrecipitationSumIn
2013-3-1,54.3,50.6,47.5,51.0,48.9,46.0,96,94,88,30.54,30.41,7,1,14,0.05
2013-3-2,51.4,46.4,41.3,49.0,45.0,40.0,96,95,91,30.41,30.30,8,1,13,0.02
2013-3-3,47.1,40.7,36.7,41.0,37.5,35.0,95,88,76,30.42,30.32,8,1,13,0.02
2013-3-4,55.4,44.5,36.2,45.0,36.9,30.0,94,76,50,30.31,29.96,10,2,23,0.01
2013-3-5,50.5,44.2,42.2,43.0,41.1,30.0,96,90,48,29.96,29.70,6,0,16,0.61
2013-3-6,47.0,44.4,42.1,45.0,42.2,41.0,96,92,86,30.03,29.64,17,3,22,0.59
2013-3-7,49.4,43.7,39.3,43.0,39.7,38.0,93,86,73,30.14,30.04,7,2,15,0.05
2013-3-8,47.9,42.4,37.8,44.0,40.0,36.0,94,91,80,30.31,30.12,5,1,8,0.03
2013-3-9,48.7,42.7,38.9,44.0,40.2,36.0,96,91,80,30.60,30.31,8,1,8,0.04
2013-3-10,47.3,44.1,38.3,46.0,41.4,35.0,98,90,79,30.59,30.51,3,0,4,0.04
2013-3-11,49.6,47.8,46.0,49.0,46.9,45.0,97,97,96,30.52,30.33,4,1,7,0.03
2013-3-12,56.1,49.4,47.1,51.0,47.4,45.0,97,92,74,30.34,30.27,8,1,10,0.02
2013-3-13,53.8,48.2,46.1,50.0,46.1,45.0,96,92,79,30.33,30.20,5,1,10,0.02
2013-3-14,51.4,48.4,45.0,49.0,45.9,44.0,95,91,81,30.31,30.16,9,2,19,0.02
2013-3-15,52.6,48.7,45.6,51.0,47.7,45.0,97,96,93,30.34,30.30,6,2,10,0.02
2013-3-16,46.5,44.9,41.4,46.0,43.0,35.0,97,93,78,30.30,30.18,12,3,23,0.56
2013-3-17,47.3,42.9,39.5,41.0,38.4,35.0,95,84,73,30.41,30.28,11,2,21,0.07
2013-3-18,49.1,43.5,38.7,43.0,40.5,38.0,97,89,77,30.39,30.17,10,1,14,0.03
2013-3-19,52.3,48.0,45.2,49.0,41.3,35.0,93,78,65,30.16,29.71,14,3,26,0.44
2013-3-20,51.1,46.3,40.6,49.0,42.1,33.0,95,86,66,30.28,29.61,16,7,36,0.00
2013-3-21,44.8,41.7,38.2,38.0,36.5,35.0,93,82,71,30.44,30.29,18,4,23,0.00
2013-3-22,43.7,38.6,34.3,38.0,35.1,33.0,95,87,73,30.49,30.42,9,2,19,0.00
2013-3-23,45.9,40.5,36.0,37.0,34.1,30.0,89,79,60,30.49,30.36,9,1,15,0.00
2013-3-24,51.5,44.8,39.6,40.0,35.7,31.0,85,71,57,30.36,30.18,4,1,10,0.00
2013-3-25,50.8,45.0,41.0,43.0,38.5,33.0,94,79,56,30.18,30.05,10,1,10,0.00
2013-3-26,47.3,45.1,41.2,46.0,44.2,40.0,97,96,95,30.12,30.05,3,0,3,0.04
2013-3-27,52.8,48.7,45.3,49.0,46.5,45.0,98,92,83,30.08,30.00,7,1,10,0.00
2013-3-28,55.4,50.1,45.8,52.0,47.8,45.0,96,92,83,30.24,30.08,5,1,8,0.01
2013-3-29,55.4,50.0,46.1,52.0,47.7,45.0,96,91,81,30.30,30.24,8,1,8,0.01
2013-3-30,71.0,59.6,48.4,53.0,49.2,46.0,95,70,46,30.25,30.03,7,2,14,0.01
2013-3-31,59.6,52.6,46.8,53.0,48.5,45.0,94,86,72,30.12,30.05,8,2,11,0.00